Weather History for KOFF - October, 2012

Change the Weather History Date:

Saturday, October 20, 2012

  Actual Average Record
Temperature  
Mean Temperature 49 °F -  
Max Temperature 66 °F 61 °F 86 °F (2003)
Min Temperature 32 °F 41 °F 29 °F (2006)
Degree Days  
Heating Degree Days 16    
Moisture  
Dew Point 38 °F    
Average Humidity 83    
Maximum Humidity 100    
Minimum Humidity 39    
Precipitation  
Precipitation 0.00 in - - ()
Sea Level Pressure  
Sea Level Pressure 29.81 in    
Wind  
Wind Speed 2 mph (SE)    
Max Wind Speed 15 mph    
Max Gust Speed 20 mph    
Visibility 7 miles    
Events Fog    
Averages and records for this station are not official NWS values.
T = Trace of Precipitation, MM = Missing Value Source: NWS Daily Summary

Daily Weather History Graph

Daily Weather History Graph

Search for Another Location

Airport or City:

Trip Planner

Search our weather history database for the weather conditions in past years. The results will help you decide how hot, cold, wet, or windy it might be!

Date:

Astronomy

Oct. 20, 2012 Rise Set
Actual Time 7:41 AM CDT 6:34 PM CDT
Civil Twilight 7:13 AM CDT 7:02 PM CDT
Nautical Twilight 6:41 AM CDT 7:34 PM CDT
Astronomical Twilight 6:09 AM CDT 8:06 PM CDT
Moon 1:19 PM CDT (10/20) 11:20 PM CDT (10/20)
Length of Visible Light 11h 49m
Length of Day
10h 53m
Waxing Crescent, 34% of the Moon is Illuminated
Oct 20
Waxing Crescent
Oct 21
First Quarter
Oct 29
Full
Nov 6
Last Quarter
Nov 13
New

Hourly Weather History & Observations

Time (CDT) Temp. Windchill Dew Point Humidity Pressure Visibility Wind Dir Wind Speed Gust Speed Precip Events Conditions
12:55 AM 38.5 °F - 36.3 °F 92% 29.83 in 10.0 mi Calm Calm - N/A   Clear
1:55 AM 38.3 °F - 36.9 °F 95% 29.83 in 10.0 mi Calm Calm - N/A   Clear
2:55 AM 35.4 °F - 34.5 °F 97% 29.83 in 10.0 mi Calm Calm - N/A   Clear
3:16 AM 35.6 °F - 33.8 °F 93% 29.83 in 2.5 mi Calm Calm - N/A   Clear
3:20 AM 33.8 °F - 33.8 °F 100% 29.82 in 1.8 mi Calm Calm - N/A   Clear
3:27 AM 35.6 °F - 35.6 °F 100% 29.80 in 1.2 mi Calm Calm - N/A   Clear
3:55 AM 35.6 °F 32.8 °F 35.6 °F 100% 29.92 in 10.0 mi WSW 3.5 mph - N/A   Clear
4:57 AM 37.4 °F - 37.4 °F 100% 29.92 in 10.0 mi Calm Calm - N/A   Partly Cloudy
5:55 AM 36.7 °F 34.1 °F 36.0 °F 97% 29.83 in 10.0 mi South 3.5 mph - N/A   Clear
6:10 AM 33.8 °F - 32.0 °F 93% 29.84 in 2.5 mi Calm Calm - N/A   Clear
6:12 AM 33.8 °F - 32.0 °F 93% 29.84 in 1.8 mi Calm Calm - N/A   Clear
6:16 AM 33.8 °F - 32.0 °F 93% 29.84 in 0.8 mi Calm Calm - N/A   Clear
6:19 AM 33.8 °F - 33.8 °F 100% 29.82 in 10.0 mi SW 1.2 mph - N/A   Clear
6:55 AM 32.0 °F - 32.0 °F 100% 29.94 in 10.0 mi Calm Calm - N/A   Clear
7:32 AM 33.8 °F - 32.0 °F 93% 29.81 in 0.5 mi Calm Calm - N/A Fog Fog
7:55 AM 34.5 °F - 34.3 °F 99% 29.83 in 0.5 mi Calm Calm - N/A Fog Fog
8:03 AM 33.8 °F - 33.8 °F 100% 29.83 in 0.2 mi Calm Calm - N/A Fog Fog
8:08 AM 33.8 °F - 33.8 °F 100% 29.83 in 0.5 mi Calm Calm - N/A Fog Fog
8:29 AM 35.6 °F - 35.6 °F 100% 29.84 in 0.2 mi Calm Calm - N/A Fog Fog
8:48 AM 35.6 °F - 35.6 °F 100% 29.85 in 1.0 mi Calm Calm - N/A   Clear
8:55 AM 36.3 °F - 36.0 °F 99% 29.84 in 2.5 mi Calm Calm - N/A   Clear
9:21 AM 39.2 °F - 39.2 °F 100% 29.82 in 10.0 mi Calm Calm - N/A   Clear
9:55 AM 44.1 °F 41.5 °F 43.7 °F 99% 29.84 in 10.0 mi SSE 4.6 mph - N/A   Clear
10:55 AM 48.7 °F - 48.6 °F 99% 29.83 in 10.0 mi SE 8.1 mph - N/A   Clear
11:55 AM 55.4 °F - 44.1 °F 66% 29.83 in 10.0 mi SE 8.1 mph - N/A   Clear
12:55 PM 59.4 °F - 43.9 °F 57% 29.81 in 10.0 mi SE 9.2 mph - N/A   Clear
1:55 PM 62.6 °F - 43.2 °F 49% 29.78 in 10.0 mi ESE 10.4 mph - N/A   Clear
2:55 PM 64.8 °F - 42.3 °F 44% 29.73 in 10.0 mi ESE 10.4 mph - N/A   Clear
3:55 PM 66.6 °F - 41.0 °F 39% 29.70 in 10.0 mi SE 15.0 mph 19.6 mph N/A   Clear
4:55 PM 66.2 °F - 41.4 °F 40% 29.69 in 10.0 mi ESE 15.0 mph - N/A   Clear
5:55 PM 63.9 °F - 42.1 °F 45% 29.71 in 10.0 mi ESE 11.5 mph - N/A   Clear
6:55 PM 57.4 °F - 41.5 °F 56% 29.74 in 10.0 mi East 8.1 mph - N/A   Clear
7:55 PM 57.4 °F - 42.4 °F 57% 29.73 in 10.0 mi East 9.2 mph - N/A   Clear
8:55 PM 53.8 °F - 41.5 °F 63% 29.75 in 10.0 mi ESE 8.1 mph - N/A   Clear
9:55 PM 52.7 °F - 41.5 °F 66% 29.75 in 10.0 mi ESE 8.1 mph - N/A   Clear
10:55 PM 50.9 °F - 41.5 °F 70% 29.74 in 10.0 mi ESE 10.4 mph - N/A   Clear
11:55 PM 50.4 °F - 40.8 °F 70% 29.74 in 10.0 mi ESE 9.2 mph - N/A   Clear